Time,TemperatureF,DewpointF,PressureIn,WindDirection,WindDirectionDegrees,WindSpeedMPH,WindSpeedGustMPH,Humidity,HourlyPrecipIn,Conditions,Clouds,dailyrainin,SolarRadiationWatts/m^2,SoftwareType,DateUTC
2013-08-06 00:01:00,65.8,54.9,29.67,South,188,1.1,5.8,68,0.00,BKN,BKN,0.00,0.0,WeatherDisplay:10.37,2013-08-06 06:01:00,
2013-08-06 00:06:00,65.8,54.9,29.66,SSW,199,0.5,4.6,68,0.00,BKN,BKN,0.00,0.0,WeatherDisplay:10.37,2013-08-06 06:06:00,
2013-08-06 00:11:00,65.9,54.6,29.66,SW,227,1.0,3.4,67,0.00,BKN,BKN,0.00,0.0,WeatherDisplay:10.37,2013-08-06 06:11:00,
2013-08-06 00:16:00,65.8,54.5,29.66,SW,219,0.1,3.4,67,0.00,BKN,BKN,0.00,0.0,WeatherDisplay:10.37,2013-08-06 06:16:00,
2013-08-06 00:21:00,65.8,54.9,29.66,SSW,195,0.0,2.0,68,0.00,BKN,BKN,0.00,0.0,WeatherDisplay:10.37,2013-08-06 06:21:00,
2013-08-06 00:26:00,65.8,54.9,29.66,SSW,195,0.0,2.3,68,0.00,BKN,BKN,0.00,0.0,WeatherDisplay:10.37,2013-08-06 06:26:00,
2013-08-06 00:31:00,65.7,54.8,29.66,SSW,195,0.6,3.0,68,0.00,BKN,BKN,0.00,0.0,WeatherDisplay:10.37,2013-08-06 06:31:00,
2013-08-06 00:36:00,65.7,54.8,29.65,SSW,192,0.7,3.0,68,0.00,BKN,BKN,0.00,0.0,WeatherDisplay:10.37,2013-08-06 06:36:00,
2013-08-06 00:41:00,65.7,54.8,29.65,SSE,160,0.4,4.6,68,0.00,BKN,BKN,0.00,0.0,WeatherDisplay:10.37,2013-08-06 06:41:00,
2013-08-06 00:46:00,65.7,54.4,29.65,SW,216,0.3,4.6,67,0.00,BKN,BKN,0.00,0.0,WeatherDisplay:10.37,2013-08-06 06:46:00,
2013-08-06 00:51:00,65.7,54.4,29.65,SW,215,0.0,0.0,67,0.00,BKN,BKN,0.00,0.0,WeatherDisplay:10.37,2013-08-06 06:51:00,
2013-08-06 00:56:00,65.7,54.4,29.64,SSW,199,0.9,3.0,67,0.00,BKN,BKN,0.00,0.0,WeatherDisplay:10.37,2013-08-06 06:56:00,
2013-08-06 01:01:00,65.8,54.1,29.64,South,179,1.4,3.4,66,0.00,BKN,BKN,0.00,0.0,WeatherDisplay:10.37,2013-08-06 07:01:00,
2013-08-06 01:06:00,65.9,53.8,29.63,South,184,0.9,1.1,65,0.00,BKN,BKN,0.00,0.0,WeatherDisplay:10.37,2013-08-06 07:06:00,
2013-08-06 01:11:00,66.1,53.6,29.62,South,184,0.2,5.8,64,0.00,BKN,BKN,0.00,0.0,WeatherDisplay:10.37,2013-08-06 07:11:00,
2013-08-06 01:16:00,66.3,53.3,29.62,South,186,0.7,1.1,63,0.00,BKN,BKN,0.00,0.0,WeatherDisplay:10.37,2013-08-06 07:16:00,
2013-08-06 01:21:00,66.4,53.4,29.62,South,188,0.0,2.3,63,0.00,BKN,BKN,0.00,0.0,WeatherDisplay:10.37,2013-08-06 07:21:00,
2013-08-06 01:26:00,66.5,53.1,29.62,South,188,0.1,2.3,62,0.00,BKN,BKN,0.00,0.0,WeatherDisplay:10.37,2013-08-06 07:26:00,
2013-08-06 01:31:00,66.5,53.1,29.61,South,188,0.0,1.1,62,0.00,BKN,BKN,0.00,0.0,WeatherDisplay:10.37,2013-08-06 07:31:00,
2013-08-06 01:36:00,66.4,53.0,29.61,South,188,0.0,0.0,62,0.00,BKN,BKN,0.00,0.0,WeatherDisplay:10.37,2013-08-06 07:36:00,
2013-08-06 01:41:00,66.3,52.9,29.61,South,188,0.0,0.0,62,0.00,BKN,BKN,0.00,0.0,WeatherDisplay:10.37,2013-08-06 07:41:00,
2013-08-06 01:46:00,66.2,52.8,29.61,South,188,0.0,0.0,62,0.00,BKN,BKN,0.00,0.0,WeatherDisplay:10.37,2013-08-06 07:46:00,
2013-08-06 01:51:00,66.1,53.1,29.61,South,188,0.0,0.0,63,0.00,BKN,BKN,0.00,0.0,WeatherDisplay:10.37,2013-08-06 07:51:00,
2013-08-06 01:56:00,65.9,52.5,29.61,South,191,2.0,3.4,62,0.00,BKN,BKN,0.00,0.0,WeatherDisplay:10.37,2013-08-06 07:56:00,
2013-08-06 02:01:00,65.6,52.2,29.61,SSW,192,0.3,3.4,62,0.00,BKN,BKN,0.00,0.0,WeatherDisplay:10.37,2013-08-06 08:01:00,
2013-08-06 02:06:00,65.4,52.0,29.62,SSW,194,1.1,3.4,62,0.00,BKN,BKN,0.00,0.0,WeatherDisplay:10.37,2013-08-06 08:06:00,
2013-08-06 02:11:00,65.2,52.3,29.62,SSW,193,1.0,2.0,63,0.00,BKN,BKN,0.00,0.0,WeatherDisplay:10.37,2013-08-06 08:11:00,
2013-08-06 02:16:00,65.1,51.8,29.62,South,175,1.6,3.4,62,0.00,BKN,BKN,0.00,0.0,WeatherDisplay:10.37,2013-08-06 08:16:00,
2013-08-06 02:21:00,65.0,51.7,29.61,South,186,0.0,3.0,62,0.00,BKN,BKN,0.00,0.0,WeatherDisplay:10.37,2013-08-06 08:21:00,
2013-08-06 02:26:00,65.2,51.4,29.62,SSW,198,2.2,5.0,61,0.00,BKN,BKN,0.00,0.0,WeatherDisplay:10.37,2013-08-06 08:26:00,
2013-08-06 02:31:00,65.5,51.7,29.61,SSW,198,1.0,6.9,61,0.00,BKN,BKN,0.00,0.0,WeatherDisplay:10.37,2013-08-06 08:31:00,
2013-08-06 02:36:00,65.8,51.1,29.62,SSE,165,1.8,4.0,59,0.00,BKN,BKN,0.00,0.0,WeatherDisplay:10.37,2013-08-06 08:36:00,
2013-08-06 02:41:00,66.1,51.4,29.62,SE,140,3.9,4.6,59,0.00,BKN,BKN,0.00,0.0,WeatherDisplay:10.37,2013-08-06 08:41:00,
2013-08-06 02:46:00,66.3,52.0,29.61,SE,138,2.6,3.4,60,0.00,BKN,BKN,0.00,0.0,WeatherDisplay:10.37,2013-08-06 08:46:00,
2013-08-06 02:51:00,66.2,51.9,29.60,SE,140,2.0,5.0,60,0.00,BKN,BKN,0.00,0.0,WeatherDisplay:10.37,2013-08-06 08:51:00,
2013-08-06 02:56:00,66.1,51.8,29.60,SSE,149,3.1,3.4,60,0.00,BKN,BKN,0.00,0.0,WeatherDisplay:10.37,2013-08-06 08:56:00,
2013-08-06 03:01:00,65.9,51.6,29.61,SSE,150,0.8,3.4,60,0.00,BKN,BKN,0.00,0.0,WeatherDisplay:10.37,2013-08-06 09:01:00,
2013-08-06 03:06:00,65.9,51.6,29.61,SSE,150,1.0,3.4,60,0.00,BKN,BKN,0.00,0.0,WeatherDisplay:10.37,2013-08-06 09:06:00,
2013-08-06 03:11:00,65.8,51.5,29.61,SSE,150,0.2,3.4,60,0.00,BKN,BKN,0.00,0.0,WeatherDisplay:10.37,2013-08-06 09:11:00,
2013-08-06 03:16:00,65.8,51.5,29.61,SSE,149,0.0,2.3,60,0.00,BKN,BKN,0.00,0.0,WeatherDisplay:10.37,2013-08-06 09:16:00,
2013-08-06 03:21:00,65.5,51.7,29.60,SSE,149,0.0,1.1,61,0.00,BKN,BKN,0.00,0.0,WeatherDisplay:10.37,2013-08-06 09:21:00,
2013-08-06 03:26:00,65.4,51.1,29.62,SSE,151,0.3,2.3,60,0.00,BKN,BKN,0.00,0.0,WeatherDisplay:10.37,2013-08-06 09:26:00,
2013-08-06 03:31:00,65.2,51.0,29.62,SSE,151,0.9,3.4,60,0.00,BKN,BKN,0.00,0.0,WeatherDisplay:10.37,2013-08-06 09:31:00,
2013-08-06 03:36:00,65.2,51.0,29.62,SSE,151,0.0,3.4,60,0.00,BKN,BKN,0.00,0.0,WeatherDisplay:10.37,2013-08-06 09:36:00,
2013-08-06 03:41:00,65.1,50.9,29.62,SSE,150,0.0,0.0,60,0.00,BKN,BKN,0.00,0.0,WeatherDisplay:10.37,2013-08-06 09:41:00,
2013-08-06 03:46:00,65.1,50.9,29.62,SSE,150,0.0,1.1,60,0.00,BKN,BKN,0.00,0.0,WeatherDisplay:10.37,2013-08-06 09:46:00,
2013-08-06 03:51:00,65.0,50.8,29.62,SSE,151,0.6,2.0,60,0.00,BKN,BKN,0.00,0.0,WeatherDisplay:10.37,2013-08-06 09:51:00,
2013-08-06 03:56:00,65.0,50.3,29.62,SSE,151,0.0,1.1,59,0.00,BKN,BKN,0.00,0.0,WeatherDisplay:10.37,2013-08-06 09:56:00,
2013-08-06 04:01:00,65.0,50.3,29.62,SSE,151,0.0,0.0,59,0.00,BKN,BKN,0.00,0.0,WeatherDisplay:10.37,2013-08-06 10:01:00,
2013-08-06 04:06:00,65.0,50.3,29.63,SSE,151,0.0,2.3,59,0.00,BKN,BKN,0.00,0.0,WeatherDisplay:10.37,2013-08-06 10:06:00,
2013-08-06 04:11:00,65.0,50.3,29.63,SSE,151,1.0,3.0,59,0.00,BKN,BKN,0.00,0.0,WeatherDisplay:10.37,2013-08-06 10:11:00,
2013-08-06 04:16:00,65.0,50.3,29.63,SSE,151,0.1,3.4,59,0.00,BKN,BKN,0.00,0.0,WeatherDisplay:10.37,2013-08-06 10:16:00,
2013-08-06 04:21:00,65.0,50.3,29.63,SSE,150,0.0,1.1,59,0.00,BKN,BKN,0.00,0.0,WeatherDisplay:10.37,2013-08-06 10:21:00,
2013-08-06 04:26:00,65.0,50.3,29.62,SSE,151,0.2,1.1,59,0.00,BKN,BKN,0.00,0.0,WeatherDisplay:10.37,2013-08-06 10:26:00,
2013-08-06 04:31:00,65.0,50.3,29.62,SSE,151,0.1,3.4,59,0.00,BKN,BKN,0.00,0.0,WeatherDisplay:10.37,2013-08-06 10:31:00,
2013-08-06 04:36:00,65.0,50.3,29.62,SSE,152,1.3,3.4,59,0.00,BKN,BKN,0.00,0.0,WeatherDisplay:10.37,2013-08-06 10:36:00,
2013-08-06 04:41:00,64.9,50.2,29.62,SSE,152,0.0,0.0,59,0.00,BKN,BKN,0.00,0.0,WeatherDisplay:10.37,2013-08-06 10:41:00,
2013-08-06 04:46:00,64.9,50.2,29.62,SSE,152,0.0,1.1,59,0.00,BKN,BKN,0.00,0.0,WeatherDisplay:10.37,2013-08-06 10:46:00,
2013-08-06 04:51:00,64.9,50.2,29.62,SSE,152,0.0,0.0,59,0.00,BKN,BKN,0.00,0.0,WeatherDisplay:10.37,2013-08-06 10:51:00,
2013-08-06 04:56:00,64.9,50.2,29.62,SSE,152,0.0,0.0,59,0.00,BKN,BKN,0.00,0.0,WeatherDisplay:10.37,2013-08-06 10:56:00,
2013-08-06 05:01:00,64.8,50.1,29.62,SSE,152,0.4,2.3,59,0.00,BKN,BKN,0.00,0.0,WeatherDisplay:10.37,2013-08-06 11:01:00,
2013-08-06 05:06:00,64.8,50.1,29.66,SSE,152,0.6,0.0,59,0.00,BKN,BKN,0.00,0.0,WeatherDisplay:10.37,2013-08-06 11:06:00,
2013-08-06 05:11:00,64.8,50.6,29.66,SSE,152,0.4,3.4,60,0.00,BKN,BKN,0.00,0.0,WeatherDisplay:10.37,2013-08-06 11:11:00,
2013-08-06 05:16:00,64.8,50.6,29.66,SSE,153,0.0,1.1,60,0.00,BKN,BKN,0.00,0.0,WeatherDisplay:10.37,2013-08-06 11:16:00,
2013-08-06 05:21:00,64.8,50.6,29.66,SSE,153,0.3,3.4,60,0.00,BKN,BKN,0.00,0.0,WeatherDisplay:10.37,2013-08-06 11:21:00,
2013-08-06 05:26:00,64.7,50.5,29.66,SSE,152,0.0,2.3,60,0.00,BKN,BKN,0.00,0.0,WeatherDisplay:10.37,2013-08-06 11:26:00,
2013-08-06 05:31:00,64.7,50.5,29.66,SSE,155,0.0,1.1,60,0.00,BKN,BKN,0.00,0.0,WeatherDisplay:10.37,2013-08-06 11:31:00,
2013-08-06 05:36:00,64.6,50.4,29.66,SSE,155,0.0,0.0,60,0.00,BKN,BKN,0.00,0.0,WeatherDisplay:10.37,2013-08-06 11:36:00,
2013-08-06 05:41:00,64.5,50.3,29.66,SSE,156,0.5,2.3,60,0.00,BKN,BKN,0.00,0.0,WeatherDisplay:10.37,2013-08-06 11:41:00,
2013-08-06 05:46:00,64.4,50.7,29.66,SSE,156,0.0,1.1,61,0.00,BKN,BKN,0.00,0.0,WeatherDisplay:10.37,2013-08-06 11:46:00,
2013-08-06 05:51:00,64.3,50.6,29.66,SSE,156,0.4,2.3,61,0.00,BKN,BKN,0.00,0.0,WeatherDisplay:10.37,2013-08-06 11:51:00,
2013-08-06 05:56:00,64.1,50.4,29.67,SSE,156,0.0,0.0,61,0.00,BKN,BKN,0.00,0.0,WeatherDisplay:10.37,2013-08-06 11:56:00,
2013-08-06 06:01:00,64.1,50.4,29.67,SSE,156,0.0,0.0,61,0.00,SCT,SCT,0.00,0.0,WeatherDisplay:10.37,2013-08-06 12:01:00,
2013-08-06 06:06:00,64.0,50.7,29.69,SSE,156,0.0,1.1,62,0.00,SCT,SCT,0.00,0.0,WeatherDisplay:10.37,2013-08-06 12:06:00,
2013-08-06 06:11:00,63.8,50.5,29.69,SSE,156,0.2,2.3,62,0.00,SCT,SCT,0.00,7.0,WeatherDisplay:10.37,2013-08-06 12:11:00,
2013-08-06 06:16:00,63.6,50.3,29.69,SSE,156,0.0,2.3,62,0.00,SCT,SCT,0.00,11.0,WeatherDisplay:10.37,2013-08-06 12:16:00,
2013-08-06 06:21:00,63.4,50.1,29.70,SSE,156,0.0,0.0,62,0.00,SCT,SCT,0.00,14.0,WeatherDisplay:10.37,2013-08-06 12:21:00,
2013-08-06 06:26:00,63.4,50.1,29.70,SSE,156,0.0,0.0,62,0.00,SCT,SCT,0.00,19.0,WeatherDisplay:10.37,2013-08-06 12:26:00,
2013-08-06 06:31:00,63.3,50.5,29.70,SSE,156,0.0,0.0,63,0.00,SCT,SCT,0.00,23.0,WeatherDisplay:10.37,2013-08-06 12:31:00,
2013-08-06 06:36:00,63.2,50.4,29.70,SSE,156,0.0,1.0,63,0.00,SCT,SCT,0.00,23.0,WeatherDisplay:10.37,2013-08-06 12:36:00,
2013-08-06 06:41:00,63.1,50.7,29.70,SSE,157,0.1,1.0,64,0.00,SCT,SCT,0.00,25.0,WeatherDisplay:10.37,2013-08-06 12:41:00,
2013-08-06 06:46:00,63.0,50.6,29.70,SSE,157,0.9,2.3,64,0.00,SCT,SCT,0.00,32.0,WeatherDisplay:10.37,2013-08-06 12:46:00,
2013-08-06 06:51:00,62.9,51.0,29.70,SSE,157,0.8,2.0,65,0.00,SCT,SCT,0.00,51.0,WeatherDisplay:10.37,2013-08-06 12:51:00,
2013-08-06 06:56:00,62.8,50.9,29.70,SSE,157,0.0,0.0,65,0.00,SCT,SCT,0.00,77.0,WeatherDisplay:10.37,2013-08-06 12:56:00,
2013-08-06 07:01:00,62.9,51.4,29.70,SSE,157,0.0,0.0,66,0.00,BKN,BKN,0.00,88.0,WeatherDisplay:10.37,2013-08-06 13:01:00,
2013-08-06 07:06:00,62.9,51.0,29.71,SSE,157,0.0,0.0,65,0.00,BKN,BKN,0.00,83.0,WeatherDisplay:10.37,2013-08-06 13:06:00,
2013-08-06 07:11:00,63.0,50.6,29.72,SSE,157,0.3,1.1,64,0.00,BKN,BKN,0.00,84.0,WeatherDisplay:10.37,2013-08-06 13:11:00,
2013-08-06 07:16:00,63.2,50.4,29.72,SSE,160,0.1,0.0,63,0.00,BKN,BKN,0.00,98.0,WeatherDisplay:10.37,2013-08-06 13:16:00,
2013-08-06 07:21:00,63.5,50.7,29.72,SSE,161,0.3,3.4,63,0.00,BKN,BKN,0.00,118.0,WeatherDisplay:10.37,2013-08-06 13:21:00,
2013-08-06 07:26:00,63.8,51.0,29.72,SSE,161,0.0,0.0,63,0.00,BKN,BKN,0.00,132.0,WeatherDisplay:10.37,2013-08-06 13:26:00,
2013-08-06 07:31:00,64.1,51.2,29.72,SSE,161,0.0,0.0,63,0.00,BKN,BKN,0.00,149.0,WeatherDisplay:10.37,2013-08-06 13:31:00,
2013-08-06 07:36:00,64.5,51.6,29.73,SSE,161,0.0,1.1,63,0.00,BKN,BKN,0.00,155.0,WeatherDisplay:10.37,2013-08-06 13:36:00,
2013-08-06 07:41:00,64.9,51.6,29.71,SSE,161,0.2,1.1,62,0.00,BKN,BKN,0.00,160.0,WeatherDisplay:10.37,2013-08-06 13:41:00,
2013-08-06 07:46:00,65.5,51.2,29.72,SSE,160,0.0,0.0,60,0.00,BKN,BKN,0.00,179.0,WeatherDisplay:10.37,2013-08-06 13:46:00,
2013-08-06 07:51:00,66.2,51.9,29.71,SSE,161,0.0,0.0,60,0.00,BKN,BKN,0.00,199.0,WeatherDisplay:10.37,2013-08-06 13:51:00,
2013-08-06 07:56:00,66.8,52.9,29.70,SSE,161,0.0,0.0,61,0.00,BKN,BKN,0.00,232.0,WeatherDisplay:10.37,2013-08-06 13:56:00,
2013-08-06 08:01:00,67.4,53.9,29.70,SSE,161,0.0,0.0,62,0.00,BKN,BKN,0.00,176.0,WeatherDisplay:10.37,2013-08-06 14:01:00,
2013-08-06 08:06:00,67.8,54.3,29.70,SSE,161,0.0,0.0,62,0.00,BKN,BKN,0.00,223.0,WeatherDisplay:10.37,2013-08-06 14:06:00,
2013-08-06 08:11:00,68.1,55.5,29.70,SSE,161,0.0,0.0,64,0.00,BKN,BKN,0.00,174.0,WeatherDisplay:10.37,2013-08-06 14:11:00,
2013-08-06 08:12:00,68.1,55.5,29.70,SSE,160,0.0,0.0,64,0.00,BKN,BKN,0.00,172.0,WeatherDisplay:10.37,2013-08-06 14:12:00,
2013-08-06 08:17:00,68.4,55.7,29.70,SSE,161,0.0,0.0,64,0.00,BKN,BKN,0.00,294.0,WeatherDisplay:10.37,2013-08-06 14:17:00,
2013-08-06 08:22:00,68.8,55.2,29.70,SSE,161,0.6,2.3,62,0.00,BKN,BKN,0.00,371.0,WeatherDisplay:10.37,2013-08-06 14:22:00,
2013-08-06 08:27:00,69.3,55.7,29.70,SSE,160,0.0,0.0,62,0.00,BKN,BKN,0.00,248.0,WeatherDisplay:10.37,2013-08-06 14:27:00,
2013-08-06 08:32:00,70.1,54.6,29.69,SSE,161,0.0,1.1,58,0.00,BKN,BKN,0.00,434.0,WeatherDisplay:10.37,2013-08-06 14:32:00,
2013-08-06 08:37:00,71.0,54.0,29.69,SSE,161,0.0,1.1,55,0.00,BKN,BKN,0.00,504.0,WeatherDisplay:10.37,2013-08-06 14:37:00,
2013-08-06 08:42:00,71.9,52.2,29.69,South,184,2.0,3.4,50,0.00,BKN,BKN,0.00,436.0,WeatherDisplay:10.37,2013-08-06 14:42:00,
2013-08-06 08:47:00,72.6,51.8,29.69,SSW,199,2.7,2.7,48,0.00,BKN,BKN,0.00,473.0,WeatherDisplay:10.37,2013-08-06 14:47:00,
2013-08-06 08:52:00,73.3,51.8,29.69,SSW,198,0.7,1.1,47,0.00,BKN,BKN,0.00,438.0,WeatherDisplay:10.37,2013-08-06 14:52:00,
2013-08-06 08:57:00,73.9,52.4,29.68,SSW,198,0.0,0.0,47,0.00,BKN,BKN,0.00,564.0,WeatherDisplay:10.37,2013-08-06 14:57:00,
2013-08-06 09:02:00,74.8,52.0,29.67,SSW,198,0.0,1.1,45,0.00,BKN,BKN,0.00,547.0,WeatherDisplay:10.37,2013-08-06 15:02:00,
2013-08-06 09:07:00,75.5,50.8,29.69,SSW,198,0.0,1.1,42,0.00,BKN,BKN,0.00,568.0,WeatherDisplay:10.37,2013-08-06 15:07:00,
2013-08-06 09:12:00,76.2,51.4,29.69,SSW,198,0.2,1.1,42,0.00,BKN,BKN,0.00,589.0,WeatherDisplay:10.37,2013-08-06 15:12:00,
2013-08-06 09:17:00,76.9,51.4,29.70,SSW,198,0.0,0.0,41,0.00,BKN,BKN,0.00,557.0,WeatherDisplay:10.37,2013-08-06 15:17:00,
2013-08-06 09:22:00,77.8,50.9,29.69,SSW,198,0.4,1.1,39,0.00,BKN,BKN,0.00,640.0,WeatherDisplay:10.37,2013-08-06 15:22:00,
2013-08-06 09:27:00,78.3,49.9,29.69,SSW,198,0.0,0.0,37,0.00,BKN,BKN,0.00,638.0,WeatherDisplay:10.37,2013-08-06 15:27:00,
2013-08-06 09:32:00,78.6,50.9,29.69,SSW,198,0.2,1.1,38,0.00,BKN,BKN,0.00,633.0,WeatherDisplay:10.37,2013-08-06 15:32:00,
2013-08-06 09:37:00,78.7,49.5,29.69,SSW,198,0.0,0.0,36,0.00,BKN,BKN,0.00,677.0,WeatherDisplay:10.37,2013-08-06 15:37:00,
2013-08-06 09:42:00,79.4,50.9,29.69,SSW,198,0.7,2.3,37,0.00,BKN,BKN,0.00,675.0,WeatherDisplay:10.37,2013-08-06 15:42:00,
2013-08-06 09:47:00,80.0,52.8,29.67,SSW,198,1.5,2.0,39,0.00,BKN,BKN,0.00,571.0,WeatherDisplay:10.37,2013-08-06 15:47:00,
2013-08-06 09:52:00,80.4,52.5,29.67,SSW,198,0.2,0.0,38,0.00,BKN,BKN,0.00,612.0,WeatherDisplay:10.37,2013-08-06 15:52:00,
2013-08-06 09:57:00,80.7,52.7,29.67,SSW,194,1.1,1.1,38,0.00,BKN,BKN,0.00,417.0,WeatherDisplay:10.37,2013-08-06 15:57:00,
2013-08-06 10:02:00,81.0,53.0,29.67,SSW,194,0.0,1.1,38,0.00,BKN,BKN,0.00,847.0,WeatherDisplay:10.37,2013-08-06 16:02:00,
2013-08-06 10:07:00,81.3,52.5,29.67,SE,137,3.1,3.1,37,0.00,BKN,BKN,0.00,812.0,WeatherDisplay:10.37,2013-08-06 16:07:00,
2013-08-06 10:12:00,81.7,52.1,29.67,SE,133,1.5,3.4,36,0.00,BKN,BKN,0.00,693.0,WeatherDisplay:10.37,2013-08-06 16:12:00,
2013-08-06 10:17:00,82.0,50.9,29.68,ENE,68,2.0,3.4,34,0.00,BKN,BKN,0.00,626.0,WeatherDisplay:10.37,2013-08-06 16:17:00,
2013-08-06 10:22:00,82.0,53.2,29.67,ENE,68,0.1,1.1,37,0.00,BKN,BKN,0.00,613.0,WeatherDisplay:10.37,2013-08-06 16:22:00,
2013-08-06 10:27:00,82.1,52.5,29.67,ENE,68,0.0,1.1,36,0.00,BKN,BKN,0.00,559.0,WeatherDisplay:10.37,2013-08-06 16:27:00,
2013-08-06 10:32:00,82.3,51.1,29.68,East,87,0.0,0.0,34,0.00,BKN,BKN,0.00,710.0,WeatherDisplay:10.37,2013-08-06 16:32:00,
2013-08-06 10:37:00,82.6,51.4,29.67,East,87,0.2,1.1,34,0.00,BKN,BKN,0.00,533.0,WeatherDisplay:10.37,2013-08-06 16:37:00,
2013-08-06 10:42:00,82.5,51.3,29.67,East,87,0.0,0.0,34,0.00,BKN,BKN,0.00,747.0,WeatherDisplay:10.37,2013-08-06 16:42:00,
2013-08-06 10:47:00,82.7,54.5,29.66,East,87,0.0,0.0,38,0.00,BKN,BKN,0.00,740.0,WeatherDisplay:10.37,2013-08-06 16:47:00,
2013-08-06 10:52:00,83.4,51.3,29.67,East,87,0.2,2.0,33,0.00,BKN,BKN,0.00,744.0,WeatherDisplay:10.37,2013-08-06 16:52:00,
2013-08-06 10:57:00,83.9,50.0,29.66,East,99,0.1,1.1,31,0.00,BKN,BKN,0.00,810.0,WeatherDisplay:10.37,2013-08-06 16:57:00,
2013-08-06 11:02:00,84.2,50.3,29.66,East,99,0.0,0.0,31,0.00,BKN,BKN,0.00,895.0,WeatherDisplay:10.37,2013-08-06 17:02:00,
2013-08-06 11:07:00,84.5,50.5,29.66,East,95,0.2,1.1,31,0.00,BKN,BKN,0.00,893.0,WeatherDisplay:10.37,2013-08-06 17:07:00,
2013-08-06 11:12:00,85.0,51.8,29.66,East,95,0.2,1.1,32,0.00,BKN,BKN,0.00,905.0,WeatherDisplay:10.37,2013-08-06 17:12:00,
2013-08-06 11:17:00,85.6,50.6,29.65,ESE,115,1.6,3.4,30,0.00,BKN,BKN,0.00,800.0,WeatherDisplay:10.37,2013-08-06 17:17:00,
2013-08-06 11:22:00,85.6,51.5,29.65,ESE,116,0.0,3.4,31,0.00,BKN,BKN,0.00,930.0,WeatherDisplay:10.37,2013-08-06 17:22:00,
2013-08-06 11:27:00,86.0,51.0,29.65,ESE,121,2.7,2.7,30,0.00,BKN,BKN,0.00,921.0,WeatherDisplay:10.37,2013-08-06 17:27:00,
2013-08-06 11:32:00,86.4,51.3,29.65,ESE,108,1.7,3.4,30,0.00,BKN,BKN,0.00,914.0,WeatherDisplay:10.37,2013-08-06 17:32:00,
2013-08-06 11:37:00,86.7,48.7,29.65,NNE,33,2.3,3.4,27,0.00,BKN,BKN,0.00,854.0,WeatherDisplay:10.37,2013-08-06 17:37:00,
2013-08-06 11:42:00,86.8,48.8,29.65,SE,127,1.7,4.6,27,0.00,BKN,BKN,0.00,926.0,WeatherDisplay:10.37,2013-08-06 17:42:00,
2013-08-06 11:47:00,87.1,49.1,29.64,East,80,1.8,8.0,27,0.00,BKN,BKN,0.00,928.0,WeatherDisplay:10.37,2013-08-06 17:47:00,
2013-08-06 11:52:00,87.4,50.3,29.64,NE,38,1.2,3.4,28,0.00,BKN,BKN,0.00,928.0,WeatherDisplay:10.37,2013-08-06 17:52:00,
2013-08-06 11:57:00,87.4,49.3,29.64,East,100,1.6,3.4,27,0.00,BKN,BKN,0.00,932.0,WeatherDisplay:10.37,2013-08-06 17:57:00,
2013-08-06 12:02:00,87.5,48.4,29.63,NE,49,0.3,3.4,26,0.00,BKN,BKN,0.00,935.0,WeatherDisplay:10.37,2013-08-06 18:02:00,
2013-08-06 12:07:00,87.4,48.3,29.64,NE,47,4.1,5.0,26,0.00,BKN,BKN,0.00,946.0,WeatherDisplay:10.37,2013-08-06 18:07:00,
2013-08-06 12:12:00,87.3,47.2,29.65,NNE,17,3.2,4.6,25,0.00,BKN,BKN,0.00,947.0,WeatherDisplay:10.37,2013-08-06 18:12:00,
2013-08-06 12:17:00,87.4,48.3,29.64,NNE,31,4.3,6.9,26,0.00,BKN,BKN,0.00,954.0,WeatherDisplay:10.37,2013-08-06 18:17:00,
2013-08-06 12:22:00,87.6,48.5,29.62,East,87,3.1,3.4,26,0.00,BKN,BKN,0.00,956.0,WeatherDisplay:10.37,2013-08-06 18:22:00,
2013-08-06 12:27:00,87.6,48.5,29.63,ENE,62,1.2,4.6,26,0.00,BKN,BKN,0.00,962.0,WeatherDisplay:10.37,2013-08-06 18:27:00,
2013-08-06 12:32:00,87.7,49.6,29.62,NE,52,0.2,3.4,27,0.00,BKN,BKN,0.00,962.0,WeatherDisplay:10.37,2013-08-06 18:32:00,
2013-08-06 12:37:00,88.2,50.0,29.62,NE,44,3.5,4.0,27,0.00,BKN,BKN,0.00,965.0,WeatherDisplay:10.37,2013-08-06 18:37:00,
2013-08-06 12:42:00,88.3,49.1,29.62,ESE,103,1.3,3.4,26,0.00,BKN,BKN,0.00,967.0,WeatherDisplay:10.37,2013-08-06 18:42:00,
2013-08-06 12:47:00,88.6,48.3,29.62,ESE,111,1.4,3.4,25,0.00,BKN,BKN,0.00,972.0,WeatherDisplay:10.37,2013-08-06 18:47:00,
2013-08-06 12:52:00,88.6,48.3,29.62,East,94,0.6,2.3,25,0.00,BKN,BKN,0.00,974.0,WeatherDisplay:10.37,2013-08-06 18:52:00,
2013-08-06 12:57:00,89.0,49.7,29.62,NNE,19,4.4,9.2,26,0.00,BKN,BKN,0.00,976.0,WeatherDisplay:10.37,2013-08-06 18:57:00,
2013-08-06 13:02:00,89.0,50.7,29.62,North,5,3.3,5.8,27,0.00,BKN,BKN,0.00,974.0,WeatherDisplay:10.37,2013-08-06 19:02:00,
2013-08-06 13:07:00,89.4,51.0,29.61,SE,137,0.6,2.3,27,0.00,BKN,BKN,0.00,969.0,WeatherDisplay:10.37,2013-08-06 19:07:00,
2013-08-06 13:12:00,89.5,49.0,29.60,ENE,74,4.2,5.8,25,0.00,BKN,BKN,0.00,977.0,WeatherDisplay:10.37,2013-08-06 19:12:00,
2013-08-06 13:17:00,89.6,49.1,29.60,NNE,30,4.1,6.9,25,0.00,BKN,BKN,0.00,969.0,WeatherDisplay:10.37,2013-08-06 19:17:00,
2013-08-06 13:22:00,89.7,51.3,29.60,ENE,64,3.3,10.3,27,0.00,BKN,BKN,0.00,886.0,WeatherDisplay:10.37,2013-08-06 19:22:00,
2013-08-06 13:27:00,89.2,48.8,29.61,NE,42,6.7,11.5,25,0.00,BKN,BKN,0.00,856.0,WeatherDisplay:10.37,2013-08-06 19:27:00,
2013-08-06 13:32:00,88.7,49.4,29.61,ESE,113,3.9,6.9,26,0.00,BKN,BKN,0.00,967.0,WeatherDisplay:10.37,2013-08-06 19:32:00,
2013-08-06 13:37:00,88.8,49.5,29.60,ESE,118,2.8,5.8,26,0.00,BKN,BKN,0.00,953.0,WeatherDisplay:10.37,2013-08-06 19:37:00,
2013-08-06 13:42:00,88.8,49.5,29.60,ESE,117,1.8,6.0,26,0.00,BKN,BKN,0.00,921.0,WeatherDisplay:10.37,2013-08-06 19:42:00,
2013-08-06 13:47:00,88.8,48.4,29.60,NE,45,3.6,4.6,25,0.00,BKN,BKN,0.00,967.0,WeatherDisplay:10.37,2013-08-06 19:47:00,
2013-08-06 13:52:00,89.0,48.6,29.60,SE,132,0.6,2.3,25,0.00,BKN,BKN,0.00,1014.0,WeatherDisplay:10.37,2013-08-06 19:52:00,
2013-08-06 13:57:00,89.7,49.2,29.59,ENE,74,3.1,6.9,25,0.00,BKN,BKN,0.00,1037.0,WeatherDisplay:10.37,2013-08-06 19:57:00,
2013-08-06 14:02:00,89.5,47.9,29.59,ESE,103,3.0,5.8,24,0.00,SCT,SCT,0.00,617.0,WeatherDisplay:10.37,2013-08-06 20:02:00,
2013-08-06 14:07:00,89.5,47.9,29.59,ESE,111,0.3,3.4,24,0.00,SCT,SCT,0.00,385.0,WeatherDisplay:10.37,2013-08-06 20:07:00,
2013-08-06 14:12:00,89.2,48.8,29.60,ESE,121,3.6,3.6,25,0.00,SCT,SCT,0.00,490.0,WeatherDisplay:10.37,2013-08-06 20:12:00,
2013-08-06 14:17:00,88.8,48.4,29.60,NE,49,0.1,2.3,25,0.00,SCT,SCT,0.00,531.0,WeatherDisplay:10.37,2013-08-06 20:17:00,
2013-08-06 14:22:00,88.6,49.3,29.60,ESE,106,0.6,2.3,26,0.00,SCT,SCT,0.00,411.0,WeatherDisplay:10.37,2013-08-06 20:22:00,
2013-08-06 14:27:00,88.6,48.3,29.60,NNW,344,0.7,5.0,25,0.00,SCT,SCT,0.00,364.0,WeatherDisplay:10.37,2013-08-06 20:27:00,
2013-08-06 14:32:00,88.4,45.9,29.60,ENE,59,1.5,3.4,23,0.00,SCT,SCT,0.00,380.0,WeatherDisplay:10.37,2013-08-06 20:32:00,
2013-08-06 14:37:00,88.0,46.7,29.61,East,86,0.7,3.4,24,0.00,SCT,SCT,0.00,387.0,WeatherDisplay:10.37,2013-08-06 20:37:00,
2013-08-06 14:42:00,87.7,46.4,29.61,ENE,61,2.8,6.9,24,0.00,SCT,SCT,0.00,418.0,WeatherDisplay:10.37,2013-08-06 20:42:00,
2013-08-06 14:47:00,87.5,47.3,29.60,NE,46,2.4,4.6,25,0.00,SCT,SCT,0.00,422.0,WeatherDisplay:10.37,2013-08-06 20:47:00,
2013-08-06 14:52:00,87.3,47.2,29.62,East,92,0.3,2.3,25,0.00,SCT,SCT,0.00,418.0,WeatherDisplay:10.37,2013-08-06 20:52:00,
2013-08-06 14:57:00,87.1,45.9,29.61,NNE,28,3.6,6.0,24,0.00,SCT,SCT,0.00,497.0,WeatherDisplay:10.37,2013-08-06 20:57:00,
2013-08-06 15:02:00,87.1,45.9,29.61,ESE,112,2.0,5.8,24,0.00,SCT,SCT,0.00,399.0,WeatherDisplay:10.37,2013-08-06 21:02:00,
2013-08-06 15:07:00,87.0,46.9,29.61,NE,56,1.0,3.4,25,0.00,SCT,SCT,0.00,445.0,WeatherDisplay:10.37,2013-08-06 21:07:00,
2013-08-06 15:12:00,87.1,47.0,29.62,ESE,117,0.9,4.0,25,0.00,SCT,SCT,0.00,450.0,WeatherDisplay:10.37,2013-08-06 21:12:00,
2013-08-06 15:17:00,87.4,46.2,29.61,East,99,1.2,3.4,24,0.00,SCT,SCT,0.00,680.0,WeatherDisplay:10.37,2013-08-06 21:17:00,
2013-08-06 15:22:00,87.6,48.5,29.61,ESE,106,1.6,3.4,26,0.00,SCT,SCT,0.00,647.0,WeatherDisplay:10.37,2013-08-06 21:22:00,
2013-08-06 15:27:00,87.8,48.6,29.61,ESE,121,4.9,8.1,26,0.00,SCT,SCT,0.00,485.0,WeatherDisplay:10.37,2013-08-06 21:27:00,
2013-08-06 15:32:00,87.8,46.5,29.62,NE,37,1.2,3.4,24,0.00,SCT,SCT,0.00,346.0,WeatherDisplay:10.37,2013-08-06 21:32:00,
2013-08-06 15:37:00,87.6,46.3,29.62,NNE,27,2.8,3.4,24,0.00,SCT,SCT,0.00,290.0,WeatherDisplay:10.37,2013-08-06 21:37:00,
2013-08-06 15:42:00,87.4,45.1,29.62,NNE,22,0.0,0.0,23,0.00,SCT,SCT,0.00,250.0,WeatherDisplay:10.37,2013-08-06 21:42:00,
2013-08-06 15:47:00,87.4,47.3,29.62,NNE,22,0.2,1.1,25,0.00,SCT,SCT,0.00,207.0,WeatherDisplay:10.37,2013-08-06 21:47:00,
2013-08-06 15:52:00,87.1,47.0,29.63,East,79,2.0,6.9,25,0.00,SCT,SCT,0.00,153.0,WeatherDisplay:10.37,2013-08-06 21:52:00,
2013-08-06 15:57:00,86.6,47.6,29.62,NNE,31,0.7,3.0,26,0.00,SCT,SCT,0.00,105.0,WeatherDisplay:10.37,2013-08-06 21:57:00,
2013-08-06 16:02:00,86.2,47.3,29.64,NNE,28,0.1,1.1,26,0.00,SCT,SCT,0.00,76.0,WeatherDisplay:10.37,2013-08-06 22:02:00,
2013-08-06 16:07:00,85.6,48.8,29.64,WNW,302,7.0,16.1,28,0.00,SCT,SCT,0.00,63.0,WeatherDisplay:10.37,2013-08-06 22:07:00,
2013-08-06 16:12:00,84.0,48.3,29.65,NW,306,5.8,11.5,29,0.00,BKN,BKN,0.00,84.0,WeatherDisplay:10.37,2013-08-06 22:12:00,
2013-08-06 16:17:00,82.7,49.0,29.66,NNW,341,5.3,10.3,31,0.00,BKN,BKN,0.00,107.0,WeatherDisplay:10.37,2013-08-06 22:17:00,
2013-08-06 16:22:00,81.5,48.8,29.67,West,266,3.5,6.9,32,0.00,BKN,BKN,0.00,130.0,WeatherDisplay:10.37,2013-08-06 22:22:00,
2013-08-06 16:27:00,80.5,49.5,29.68,North,355,1.3,5.8,34,0.00,BKN,BKN,0.00,123.0,WeatherDisplay:10.37,2013-08-06 22:27:00,
2013-08-06 16:32:00,79.6,49.5,29.70,WSW,251,5.1,11.0,35,0.00,BKN,BKN,0.00,134.0,WeatherDisplay:10.37,2013-08-06 22:32:00,
2013-08-06 16:37:00,78.5,50.1,29.70,NW,312,9.4,16.1,37,0.00,BKN,BKN,0.00,163.0,WeatherDisplay:10.37,2013-08-06 22:37:00,
2013-08-06 16:42:00,77.4,50.5,29.72,North,350,5.1,10.3,39,0.00,BKN,BKN,0.00,155.0,WeatherDisplay:10.37,2013-08-06 22:42:00,
2013-08-06 16:47:00,76.6,51.1,29.72,NNW,330,3.6,8.1,41,0.00,BKN,BKN,0.00,135.0,WeatherDisplay:10.37,2013-08-06 22:47:00,
2013-08-06 16:52:00,75.9,51.8,29.72,NNW,338,4.8,11.5,43,0.00,BKN,BKN,0.00,141.0,WeatherDisplay:10.37,2013-08-06 22:52:00,
2013-08-06 16:57:00,75.3,51.9,29.72,West,279,3.6,7.0,44,0.00,BKN,BKN,0.00,137.0,WeatherDisplay:10.37,2013-08-06 22:57:00,
2013-08-06 17:02:00,75.0,51.6,29.73,NNW,345,5.5,11.0,44,0.00,BKN,BKN,0.00,134.0,WeatherDisplay:10.37,2013-08-06 23:02:00,
2013-08-06 17:07:00,74.6,51.2,29.74,WNW,284,7.1,18.4,44,0.00,BKN,BKN,0.00,98.0,WeatherDisplay:10.37,2013-08-06 23:07:00,
2013-08-06 17:12:00,74.2,51.5,29.74,WNW,291,5.3,11.5,45,0.00,BKN,BKN,0.00,79.0,WeatherDisplay:10.37,2013-08-06 23:12:00,
2013-08-06 17:17:00,73.9,51.8,29.74,WSW,252,1.3,10.0,46,0.00,BKN,BKN,0.00,74.0,WeatherDisplay:10.37,2013-08-06 23:17:00,
2013-08-06 17:22:00,73.5,52.0,29.74,WSW,257,0.7,6.9,47,0.00,BKN,BKN,0.00,74.0,WeatherDisplay:10.37,2013-08-06 23:22:00,
2013-08-06 17:27:00,73.2,51.8,29.75,West,265,1.7,3.4,47,0.00,BKN,BKN,0.00,76.0,WeatherDisplay:10.37,2013-08-06 23:27:00,
2013-08-06 17:32:00,73.1,51.1,29.75,West,271,1.2,3.4,46,0.00,BKN,BKN,0.00,67.0,WeatherDisplay:10.37,2013-08-06 23:32:00,
2013-08-06 17:37:00,73.0,51.0,29.76,West,277,3.3,11.5,46,0.00,BKN,BKN,0.00,62.0,WeatherDisplay:10.37,2013-08-06 23:37:00,
2013-08-06 17:42:00,73.0,51.0,29.76,WNW,296,2.3,5.8,46,0.00,BKN,BKN,0.00,70.0,WeatherDisplay:10.37,2013-08-06 23:42:00,
2013-08-06 17:47:00,73.0,51.0,29.76,NW,314,4.7,9.2,46,0.00,BKN,BKN,0.00,65.0,WeatherDisplay:10.37,2013-08-06 23:47:00,
2013-08-06 17:52:00,73.1,51.1,29.76,West,273,0.3,2.3,46,0.00,BKN,BKN,0.00,56.0,WeatherDisplay:10.37,2013-08-06 23:52:00,
2013-08-06 17:57:00,73.2,50.6,29.76,NW,309,0.0,1.1,45,0.00,BKN,BKN,0.00,51.0,WeatherDisplay:10.37,2013-08-06 23:57:00,
2013-08-06 18:02:00,73.3,50.1,29.77,NW,315,1.1,6.9,44,0.00,BKN,BKN,0.00,47.0,WeatherDisplay:10.37,2013-08-07 00:02:00,
2013-08-06 18:07:00,73.4,50.2,29.77,WSW,258,0.3,3.0,44,0.00,BKN,BKN,0.00,40.0,WeatherDisplay:10.37,2013-08-07 00:07:00,
2013-08-06 18:12:00,73.5,50.2,29.77,NW,307,0.0,0.0,44,0.00,BKN,BKN,0.00,35.0,WeatherDisplay:10.37,2013-08-07 00:12:00,
2013-08-06 18:17:00,73.5,50.2,29.77,West,279,0.3,2.3,44,0.00,BKN,BKN,0.00,32.0,WeatherDisplay:10.37,2013-08-07 00:17:00,
2013-08-06 18:22:00,73.5,50.2,29.77,SW,229,2.7,4.6,44,0.00,BKN,BKN,0.00,35.0,WeatherDisplay:10.37,2013-08-07 00:22:00,
2013-08-06 18:27:00,73.6,50.3,29.77,West,269,2.3,5.8,44,0.00,BKN,BKN,0.00,51.0,WeatherDisplay:10.37,2013-08-07 00:27:00,
2013-08-06 18:32:00,73.7,49.8,29.77,SW,227,1.8,4.0,43,0.00,BKN,BKN,0.00,62.0,WeatherDisplay:10.37,2013-08-07 00:32:00,
2013-08-06 18:37:00,73.8,49.9,29.77,WNW,288,2.2,4.6,43,0.00,BKN,BKN,0.00,58.0,WeatherDisplay:10.37,2013-08-07 00:37:00,
2013-08-06 18:42:00,74.0,50.1,29.77,SW,236,0.9,4.6,43,0.00,BKN,BKN,0.00,40.0,WeatherDisplay:10.37,2013-08-07 00:42:00,
2013-08-06 18:47:00,74.0,50.1,29.77,SW,236,0.7,2.3,43,0.00,BKN,BKN,0.00,32.0,WeatherDisplay:10.37,2013-08-07 00:47:00,
2013-08-06 18:52:00,74.0,50.1,29.77,South,190,1.8,4.6,43,0.00,BKN,BKN,0.00,28.0,WeatherDisplay:10.37,2013-08-07 00:52:00,
2013-08-06 18:57:00,74.1,49.5,29.77,South,187,2.9,9.2,42,0.00,BKN,BKN,0.00,23.0,WeatherDisplay:10.37,2013-08-07 00:57:00,
2013-08-06 19:02:00,74.3,50.4,29.77,SSW,210,0.1,1.1,43,0.00,BKN,BKN,0.00,18.0,WeatherDisplay:10.37,2013-08-07 01:02:00,
2013-08-06 19:07:00,74.4,49.2,29.76,West,265,4.2,11.5,41,0.00,BKN,BKN,0.00,16.0,WeatherDisplay:10.37,2013-08-07 01:07:00,
2013-08-06 19:12:00,74.6,48.7,29.75,NW,318,2.7,8.1,40,0.00,BKN,BKN,0.00,14.0,WeatherDisplay:10.37,2013-08-07 01:12:00,
2013-08-06 19:17:00,74.7,47.4,29.75,WSW,249,5.1,10.3,38,0.00,BKN,BKN,0.00,12.0,WeatherDisplay:10.37,2013-08-07 01:17:00,
2013-08-06 19:22:00,74.8,47.5,29.75,West,269,3.1,9.2,38,0.00,BKN,BKN,0.00,12.0,WeatherDisplay:10.37,2013-08-07 01:22:00,
2013-08-06 19:27:00,74.9,48.9,29.74,WSW,256,3.9,10.3,40,0.00,BKN,BKN,0.00,12.0,WeatherDisplay:10.37,2013-08-07 01:27:00,
2013-08-06 19:32:00,74.8,47.5,29.75,West,263,1.4,6.9,38,0.00,BKN,BKN,0.00,14.0,WeatherDisplay:10.37,2013-08-07 01:32:00,
2013-08-06 19:37:00,74.8,47.5,29.76,West,259,1.1,4.6,38,0.00,BKN,BKN,0.00,12.0,WeatherDisplay:10.37,2013-08-07 01:37:00,
2013-08-06 19:42:00,74.8,48.2,29.76,West,268,5.0,11.5,39,0.00,BKN,BKN,0.00,12.0,WeatherDisplay:10.37,2013-08-07 01:42:00,
2013-08-06 19:47:00,74.6,48.0,29.75,West,259,4.8,11.5,39,0.00,BKN,BKN,0.00,11.0,WeatherDisplay:10.37,2013-08-07 01:47:00,
2013-08-06 19:52:00,74.4,48.5,29.76,West,262,1.8,9.2,40,0.00,BKN,BKN,0.00,7.0,WeatherDisplay:10.37,2013-08-07 01:52:00,
2013-08-06 19:57:00,74.1,48.9,29.76,SW,221,3.0,5.8,41,0.00,BKN,BKN,0.00,0.0,WeatherDisplay:10.37,2013-08-07 01:57:00,
2013-08-06 20:02:00,73.9,48.1,29.76,WNW,292,7.4,12.0,40,0.00,BKN,BKN,0.00,0.0,WeatherDisplay:10.37,2013-08-07 02:02:00,
2013-08-06 20:07:00,73.8,48.0,29.72,WSW,243,4.3,11.5,40,0.00,BKN,BKN,0.00,0.0,WeatherDisplay:10.37,2013-08-07 02:07:00,
2013-08-06 20:12:00,73.6,48.4,29.71,SW,233,5.8,11.5,41,0.00,BKN,BKN,0.00,0.0,WeatherDisplay:10.37,2013-08-07 02:12:00,
2013-08-06 20:17:00,73.4,48.3,29.71,West,276,5.0,11.5,41,0.00,BKN,BKN,0.00,0.0,WeatherDisplay:10.37,2013-08-07 02:17:00,
2013-08-06 20:22:00,73.3,48.2,29.71,South,187,10.0,16.1,41,0.00,BKN,BKN,0.00,0.0,WeatherDisplay:10.37,2013-08-07 02:22:00,
2013-08-06 20:27:00,73.2,48.1,29.71,SSW,196,4.7,9.2,41,0.00,BKN,BKN,0.00,0.0,WeatherDisplay:10.37,2013-08-07 02:27:00,
2013-08-06 20:32:00,73.1,48.6,29.70,SSW,199,4.6,11.5,42,0.00,BKN,BKN,0.00,0.0,WeatherDisplay:10.37,2013-08-07 02:32:00,
2013-08-06 20:37:00,73.0,49.2,29.69,South,189,3.3,13.0,43,0.00,BKN,BKN,0.00,0.0,WeatherDisplay:10.37,2013-08-07 02:37:00,
2013-08-06 20:42:00,72.8,49.6,29.69,WSW,250,3.3,10.3,44,0.00,BKN,BKN,0.00,0.0,WeatherDisplay:10.37,2013-08-07 02:42:00,
2013-08-06 20:47:00,72.7,49.5,29.69,WSW,241,5.3,13.8,44,0.00,BKN,BKN,0.00,0.0,WeatherDisplay:10.37,2013-08-07 02:47:00,
2013-08-06 20:52:00,72.5,49.3,29.69,SW,222,5.6,10.3,44,0.00,BKN,BKN,0.00,0.0,WeatherDisplay:10.37,2013-08-07 02:52:00,
2013-08-06 20:57:00,72.3,49.8,29.70,WSW,250,1.4,10.3,45,0.00,BKN,BKN,0.00,0.0,WeatherDisplay:10.37,2013-08-07 02:57:00,
2013-08-06 21:02:00,72.1,49.6,29.70,SSW,200,2.0,5.8,45,0.00,BKN,BKN,0.00,0.0,WeatherDisplay:10.37,2013-08-07 03:02:00,
2013-08-06 21:07:00,71.9,50.0,29.67,SSW,199,0.7,2.3,46,0.00,BKN,BKN,0.00,0.0,WeatherDisplay:10.37,2013-08-07 03:07:00,
2013-08-06 21:12:00,71.7,49.8,29.67,WNW,284,2.7,11.5,46,0.00,BKN,BKN,0.00,0.0,WeatherDisplay:10.37,2013-08-07 03:12:00,
2013-08-06 21:17:00,71.5,50.2,29.67,SW,235,2.5,6.9,47,0.00,BKN,BKN,0.00,0.0,WeatherDisplay:10.37,2013-08-07 03:17:00,
2013-08-06 21:22:00,71.3,50.0,29.67,WSW,252,2.4,6.9,47,0.00,BKN,BKN,0.00,0.0,WeatherDisplay:10.37,2013-08-07 03:22:00,
2013-08-06 21:27:00,71.3,50.6,29.67,WSW,238,1.5,3.4,48,0.00,BKN,BKN,0.00,0.0,WeatherDisplay:10.37,2013-08-07 03:27:00,
2013-08-06 21:32:00,71.2,50.5,29.67,SSW,198,0.8,4.0,48,0.00,BKN,BKN,0.00,0.0,WeatherDisplay:10.37,2013-08-07 03:32:00,
2013-08-06 21:37:00,71.0,50.3,29.66,SSE,160,7.1,16.1,48,0.00,BKN,BKN,0.00,0.0,WeatherDisplay:10.37,2013-08-07 03:37:00,
2013-08-06 21:42:00,70.9,50.8,29.66,SW,222,4.9,10.3,49,0.00,BKN,BKN,0.00,0.0,WeatherDisplay:10.37,2013-08-07 03:42:00,
2013-08-06 21:47:00,70.8,50.7,29.65,SW,222,1.4,4.6,49,0.00,BKN,BKN,0.00,0.0,WeatherDisplay:10.37,2013-08-07 03:47:00,
2013-08-06 21:52:00,70.8,50.7,29.64,West,272,3.8,11.5,49,0.00,BKN,BKN,0.00,0.0,WeatherDisplay:10.37,2013-08-07 03:52:00,
2013-08-06 21:57:00,70.8,50.7,29.64,South,170,1.9,9.2,49,0.00,BKN,BKN,0.00,0.0,WeatherDisplay:10.37,2013-08-07 03:57:00,
2013-08-06 22:01:00,70.8,50.7,29.64,SSW,203,2.4,10.3,49,0.00,BKN,BKN,0.00,0.0,WeatherDisplay:10.37,2013-08-07 04:01:00,
2013-08-06 22:06:00,70.8,50.7,29.62,SW,225,3.6,10.3,49,0.00,BKN,BKN,0.00,0.0,WeatherDisplay:10.37,2013-08-07 04:06:00,
2013-08-06 22:11:00,70.8,50.7,29.62,SSW,192,6.2,11.5,49,0.00,BKN,BKN,0.00,0.0,WeatherDisplay:10.37,2013-08-07 04:11:00,
2013-08-06 22:16:00,70.8,50.7,29.62,SW,224,0.6,6.9,49,0.00,BKN,BKN,0.00,0.0,WeatherDisplay:10.37,2013-08-07 04:16:00,
2013-08-06 22:21:00,70.8,50.7,29.62,SW,214,6.0,11.5,49,0.00,BKN,BKN,0.00,0.0,WeatherDisplay:10.37,2013-08-07 04:21:00,
2013-08-06 22:26:00,70.8,50.7,29.62,SSE,156,4.0,6.9,49,0.00,BKN,BKN,0.00,0.0,WeatherDisplay:10.37,2013-08-07 04:26:00,
2013-08-06 22:31:00,70.8,50.1,29.62,SSW,211,2.7,6.9,48,0.00,BKN,BKN,0.00,0.0,WeatherDisplay:10.37,2013-08-07 04:31:00,
2013-08-06 22:36:00,70.9,50.2,29.62,SE,144,3.4,9.2,48,0.00,BKN,BKN,0.00,0.0,WeatherDisplay:10.37,2013-08-07 04:36:00,
2013-08-06 22:41:00,71.0,49.7,29.62,SSW,196,2.0,6.9,47,0.00,BKN,BKN,0.00,0.0,WeatherDisplay:10.37,2013-08-07 04:41:00,
2013-08-06 22:46:00,71.1,50.4,29.63,WSW,248,2.0,4.6,48,0.00,BKN,BKN,0.00,0.0,WeatherDisplay:10.37,2013-08-07 04:46:00,
2013-08-06 22:51:00,71.2,50.5,29.63,WSW,244,0.0,0.0,48,0.00,BKN,BKN,0.00,0.0,WeatherDisplay:10.37,2013-08-07 04:51:00,
2013-08-06 22:56:00,71.1,50.4,29.63,SSE,152,1.6,4.6,48,0.00,BKN,BKN,0.00,0.0,WeatherDisplay:10.37,2013-08-07 04:56:00,
2013-08-06 23:01:00,71.1,50.4,29.63,SE,140,0.0,1.1,48,0.00,BKN,BKN,0.00,0.0,WeatherDisplay:10.37,2013-08-07 05:01:00,
2013-08-06 23:06:00,71.0,50.9,29.61,SE,138,0.1,3.4,49,0.00,BKN,BKN,0.00,0.0,WeatherDisplay:10.37,2013-08-07 05:06:00,
2013-08-06 23:11:00,70.9,50.8,29.61,SE,140,2.5,5.0,49,0.00,BKN,BKN,0.00,0.0,WeatherDisplay:10.37,2013-08-07 05:11:00,
2013-08-06 23:16:00,70.7,50.6,29.61,South,178,0.8,4.0,49,0.00,BKN,BKN,0.00,0.0,WeatherDisplay:10.37,2013-08-07 05:16:00,
2013-08-06 23:21:00,70.6,50.5,29.61,South,178,0.8,3.4,49,0.00,BKN,BKN,0.00,0.0,WeatherDisplay:10.37,2013-08-07 05:21:00,
2013-08-06 23:26:00,70.5,50.4,29.62,South,178,1.7,3.4,49,0.00,BKN,BKN,0.00,0.0,WeatherDisplay:10.37,2013-08-07 05:26:00,
2013-08-06 23:31:00,70.4,50.9,29.61,South,178,0.0,0.0,50,0.00,BKN,BKN,0.00,0.0,WeatherDisplay:10.37,2013-08-07 05:31:00,
2013-08-06 23:36:00,70.4,50.9,29.62,South,178,0.5,2.3,50,0.00,BKN,BKN,0.00,0.0,WeatherDisplay:10.37,2013-08-07 05:36:00,
2013-08-06 23:41:00,70.4,50.3,29.62,South,178,0.0,0.0,49,0.00,BKN,BKN,0.00,0.0,WeatherDisplay:10.37,2013-08-07 05:41:00,
2013-08-06 23:46:00,70.3,50.8,29.63,South,178,0.0,0.0,50,0.00,BKN,BKN,0.00,0.0,WeatherDisplay:10.37,2013-08-07 05:46:00,
2013-08-06 23:51:00,70.2,50.7,29.64,SSE,156,0.1,2.3,50,0.00,BKN,BKN,0.00,0.0,WeatherDisplay:10.37,2013-08-07 05:51:00,
2013-08-06 23:56:00,70.1,51.1,29.64,SE,138,1.3,3.4,51,0.00,BKN,BKN,0.00,0.0,WeatherDisplay:10.37,2013-08-07 05:56:00,